#timestamp,LO_Frequency,Hit,StdDev 
1583486075.7,286046998.5,P
1583486095.5,286046999.6,P
1583486115.4,286046999.2,N
1583486135.2,286046997.3,Y
1583486155.1,286046998.5,P
1583486156.0,286046998.5,P
1583486175.8,286046998.9,P
1583486195.6,286046998.3,Y
1583486215.5,286047000.6,P
1583486235.3,286046999.1,N
1583486255.1,286046998.6,N
1583486275.9,286046998.3,N
1583486295.7,286046998.2,N
1583486315.6,286046998.7,N
1583486335.4,286046998.9,N
1583486355.2,286046999.4,N
1583486375.1,286046998.9,N
1583486376.0,286046998.9,N
1583486395.8,286046998.5,N
1583486415.7,286046998.4,N
1583486435.5,286047001.2,N
1583486455.3,286046998.3,N
1583486475.2,286046998.9,N
1583486495.0,286046996.9,Y
1583486495.9,286046996.9,P
1583486515.7,286046998.6,N
1583486535.6,286047000.7,N
1583486555.4,286046998.3,N
1583486575.3,286046998.5,N
1583486595.1,286046998.4,N
1583486596.0,286046998.4,N
1583486615.8,286046999.0,N
1583486635.7,286046998.9,N
1583486655.5,286046999.3,N
1583486675.3,286046999.3,N
1583486695.2,286046998.9,N
1583486715.0,286046999.0,N
1583486715.9,286046999.0,N
1583486735.8,286047000.8,N
1583486755.6,286047001.2,N
1583486775.4,286046998.7,N
1583486795.3,286047001.1,N
1583486815.1,286046998.9,N
1583486835.9,286046996.7,Y
1583486855.7,286046999.5,P
1583486875.5,286046997.2,P
1583486895.4,286046999.6,N
1583486915.2,286046997.8,N
1583486935.0,286046997.1,Y
1583486935.9,286046997.1,P
1583486955.8,286046999.3,N
1583486975.6,286046997.4,N
1583486995.5,286046997.4,N
1583487015.3,286046995.4,Y
1583487035.1,286046997.5,P
1583487055.9,286046995.1,P
1583487075.7,286046995.8,P
1583487095.6,286046995.8,Y
1583487115.4,286046999.0,P
1583487135.2,286046998.3,N
1583487155.1,286046996.6,P
1583487156.0,286046996.6,Y
1583487175.8,286046999.8,P
1583487195.6,286047002.6,N
1583487215.5,286047000.1,N
1583487235.3,286047001.2,N
1583487255.2,286046999.4,N
1583487275.9,286046997.0,N
1583487295.7,286046996.5,N
1583487315.6,286046998.7,N
1583487335.4,286046998.4,N
1583487355.3,286046998.7,N
1583487375.1,286046999.3,N
1583487376.0,286046999.3,N
1583487395.8,286046998.8,N
1583487415.7,286046998.6,N
1583487435.5,286047001.2,N
1583487455.4,286047000.3,N
1583487475.2,286046998.5,N
1583487495.0,286046998.6,N
1583487495.9,286046998.6,N
1583487515.8,286047000.6,N
1583487535.6,286047002.6,N
1583487555.4,286046999.9,N
1583487575.3,286046999.8,N
1583487595.1,286047000.5,N
1583487615.9,286046998.8,N
1583487635.7,286046999.2,N
1583487655.5,286046996.6,N
1583487675.4,286046997.6,N
1583487695.2,286046997.2,N
1583487715.1,286046997.2,N
1583487716.0,286046997.2,N
1583487735.8,286046997.5,N
1583487755.6,286046995.2,Y
1583487775.5,286046995.5,P
1583487795.3,286046996.4,N
1583487815.2,286046993.5,P
1583487835.9,286046995.6,N
1583487855.7,286046996.3,N
1583487875.6,286046996.4,N
1583487895.4,286046993.9,Y
1583487915.2,286046999.3,P
1583487935.1,286046998.9,N
1583487936.0,286046998.9,N
1583487955.8,286047000.8,N
1583487975.7,286047002.7,N
1583487995.5,286047000.1,N
1583488015.3,286047000.0,N
1583488035.2,286047000.4,N
1583488055.0,286047002.2,N
1583488055.9,286047002.2,N
1583488075.8,286047002.3,N
1583488095.6,286047002.4,N
1583488115.4,286047002.8,N
1583488135.3,286047000.4,N
1583488155.1,286047000.6,N
1583488175.8,286046998.2,N
1583488195.7,286046998.8,N
1583488215.5,286046998.8,N
1583488235.4,286046998.2,N
1583488255.2,286046999.3,N
1583488275.0,286046996.5,N
1583488275.9,286046996.5,N
1583488295.8,286046997.8,N
1583488315.6,286046995.6,N
1583488335.4,286046995.8,N
1583488355.3,286046993.7,N
1583488375.1,286046996.4,N
1583488395.9,286046995.7,N
1583488415.7,286046995.0,N
1583488435.5,286046997.1,N
1583488455.4,286046997.8,N
1583488475.2,286046998.4,N
1583488495.0,286046998.2,N
1583488495.9,286046998.2,N
1583488515.8,286046998.5,N
1583488535.6,286046998.6,N
1583488555.5,286046998.3,N
1583488575.3,286046996.5,N
1583488595.1,286046997.3,N
1583488615.9,286046994.9,N
1583488635.7,286046994.3,N
1583488655.6,286046994.3,N
1583488675.4,286046993.0,Y
1583488695.2,286046994.4,P
1583488715.1,286046994.8,P
1583488716.0,286046994.8,P
1583488735.8,286046994.5,Y
1583488755.7,286047000.9,P
1583488775